PRJAM SBSJ-SBGW

Flight info

Callsign PRJAM
Flight time N/A
Altitude 3500
Route DCT 2152S41235W DCT
Aircraft R66/L-V/N

Departure

Time 2026-04-28 20:01
Airport Professor Urbano Ernesto Stumpf Airport (SBSJ)

Arrival

Time N/A
Airport Edu Chaves Field (SBGW)
Time Latitude Longitude Altitude Speed Heading
2026-04-28 19:59 -23.21993 -45.87177 2031 ft 0 kts 135°
2026-04-28 20:00 -23.22052 -45.87145 2126 ft 26 kts 144°
2026-04-28 20:00 -23.22329 -45.86952 2262 ft 54 kts 148°
2026-04-28 20:01 -23.22620 -45.86888 2553 ft 31 kts 248°
2026-04-28 20:01 -23.22614 -45.87047 3044 ft 29 kts 315°
2026-04-28 20:01 -23.22335 -45.87086 3540 ft 75 kts 18°
2026-04-28 20:01 -23.21673 -45.86719 3595 ft 119 kts 37°
2026-04-28 20:02 -23.21000 -45.86109 3828 ft 130 kts 45°
2026-04-28 20:02 -23.20352 -45.85372 4019 ft 138 kts 43°
2026-04-28 20:02 -23.19975 -45.84896 4397 ft 107 kts 58°
2026-04-28 20:02 -23.19727 -45.84177 4740 ft 106 kts 79°
2026-04-28 20:03 -23.19546 -45.83323 4618 ft 122 kts 57°
2026-04-28 20:03 -23.18903 -45.82761 4579 ft 126 kts 18°
2026-04-28 20:03 -23.18066 -45.82717 4554 ft 117 kts 352°
2026-04-28 20:03 -23.17324 -45.82921 4650 ft 90 kts 353°
2026-04-28 20:04 -23.17248 -45.82928 4589 ft 11 kts 270°
2026-04-28 20:04 -23.17227 -45.82923 5335 ft 8 kts 185°
2026-04-28 20:04 -23.17245 -45.82885 6156 ft 14 kts 179°
2026-04-28 20:04 -23.17255 -45.82843 6940 ft 14 kts 86°
2026-04-28 20:05 -23.21921 -45.87127 6960 ft 0 kts 256°
2026-04-28 20:08 -23.21993 -45.87177 2034 ft 0 kts 135°
2026-04-28 20:11 -23.22006 -45.87167 2269 ft 13 kts 161°
2026-04-28 20:11 -23.22085 -45.87243 2599 ft 29 kts 253°
2026-04-28 20:12 -23.22089 -45.87511 2950 ft 39 kts 272°
2026-04-28 20:12 -23.22009 -45.87933 2970 ft 79 kts 279°
2026-04-28 20:12 -23.21848 -45.88556 3030 ft 83 kts 283°
2026-04-28 20:12 -23.21700 -45.88947 3074 ft 91 kts 289°
2026-04-28 20:13 -23.21236 -45.89726 3185 ft 55 kts 201°
2026-04-28 20:13 -23.21186 -45.89506 2692 ft 27 kts 234°
2026-04-28 20:13 -23.21027 -45.89538 3015 ft 48 kts 321°
2026-04-28 20:13 -23.20575 -45.89495 3654 ft 77 kts 354°
2026-04-28 20:14 -23.19995 -45.89426 4336 ft 92 kts 345°
2026-04-28 20:14 -23.19608 -45.89419 4687 ft 48 kts 193°